Year,Month,Day,Hour,Minute,Value (Times are PST for temperature in C)
2019,02,05,00,00,-4.40
2019,02,05,00,01,-4.40
2019,02,05,00,02,-4.50
2019,02,05,00,03,-4.50
2019,02,05,00,04,-4.50
2019,02,05,00,05,-4.50
2019,02,05,00,09,-4.50
2019,02,05,00,10,-4.50
2019,02,05,00,11,-4.50
2019,02,05,00,12,-4.50
2019,02,05,00,13,-4.60
2019,02,05,00,14,-4.60
2019,02,05,00,15,-4.60
2019,02,05,00,16,-4.60
2019,02,05,00,17,-4.60
2019,02,05,00,18,-4.60
2019,02,05,00,19,-4.60
2019,02,05,00,20,-4.60
2019,02,05,00,21,-4.70
2019,02,05,00,22,-4.70
2019,02,05,00,23,-4.70
2019,02,05,00,24,-4.70
2019,02,05,00,25,-4.70
2019,02,05,00,26,-4.70
2019,02,05,00,27,-4.70
2019,02,05,00,28,-4.70
2019,02,05,00,29,-4.70
2019,02,05,00,30,-4.70
2019,02,05,00,31,-4.70
2019,02,05,00,32,-4.70
2019,02,05,00,33,-4.70
2019,02,05,00,34,-4.70
2019,02,05,00,35,-4.80
2019,02,05,00,37,-4.80
2019,02,05,00,38,-4.80
2019,02,05,00,39,-4.80
2019,02,05,00,40,-4.80
2019,02,05,00,41,-4.70
2019,02,05,00,42,-4.70
2019,02,05,00,43,-4.70
2019,02,05,00,44,-4.70
2019,02,05,00,45,-4.70
2019,02,05,00,46,-4.70
2019,02,05,00,47,-4.70
2019,02,05,00,48,-4.70
2019,02,05,00,49,-4.70
2019,02,05,00,50,-4.70
2019,02,05,00,51,-4.70
2019,02,05,00,52,-4.70
2019,02,05,00,53,-4.70
2019,02,05,00,54,-4.70
2019,02,05,00,55,-4.70
2019,02,05,00,56,-4.70
2019,02,05,00,57,-4.70
2019,02,05,00,58,-4.70
2019,02,05,00,59,-4.80
2019,02,05,01,00,-4.80
2019,02,05,01,01,-4.80
2019,02,05,01,03,-4.80
2019,02,05,01,04,-4.80
2019,02,05,01,05,-4.80
2019,02,05,01,06,-4.80
2019,02,05,01,07,-4.80
2019,02,05,01,08,-4.80
2019,02,05,01,09,-4.80
2019,02,05,01,10,-4.80
2019,02,05,01,11,-4.80
2019,02,05,01,12,-4.80
2019,02,05,01,13,-4.90
2019,02,05,01,14,-4.80
2019,02,05,01,15,-4.90
2019,02,05,01,16,-4.90
2019,02,05,01,17,-4.90
2019,02,05,01,18,-4.90
2019,02,05,01,19,-4.90
2019,02,05,01,20,-4.90
2019,02,05,01,21,-4.90
2019,02,05,01,22,-4.90
2019,02,05,01,23,-4.90
2019,02,05,01,24,-4.90
2019,02,05,01,25,-4.90
2019,02,05,01,26,-4.90
2019,02,05,01,27,-4.90
2019,02,05,01,28,-4.90
2019,02,05,01,29,-4.90
2019,02,05,01,30,-4.90
2019,02,05,01,31,-4.90
2019,02,05,01,32,-4.90
2019,02,05,01,33,-4.90
2019,02,05,01,34,-4.90
2019,02,05,01,35,-4.90
2019,02,05,01,36,-4.80
2019,02,05,01,37,-4.90
2019,02,05,01,38,-4.90
2019,02,05,01,39,-4.90
2019,02,05,01,40,-4.90
2019,02,05,01,41,-4.90
2019,02,05,01,42,-4.90
2019,02,05,01,43,-4.90
2019,02,05,01,44,-4.90
2019,02,05,01,45,-4.90
2019,02,05,01,46,-4.90
2019,02,05,01,47,-4.90
2019,02,05,01,48,-4.90
2019,02,05,01,49,-4.90
2019,02,05,01,50,-4.90
2019,02,05,01,51,-4.90
2019,02,05,01,52,-4.90
2019,02,05,01,53,-4.90
2019,02,05,01,54,-4.90
2019,02,05,01,55,-4.90
2019,02,05,01,56,-4.90
2019,02,05,01,57,-4.90
2019,02,05,01,58,-4.90
2019,02,05,01,59,-4.90
2019,02,05,02,00,-4.90
2019,02,05,02,01,-5.00
2019,02,05,02,02,-5.00
2019,02,05,02,03,-5.00
2019,02,05,02,04,-5.00
2019,02,05,02,05,-5.10
2019,02,05,02,06,-5.10
2019,02,05,02,07,-5.10
2019,02,05,02,08,-5.10
2019,02,05,02,09,-5.10
2019,02,05,02,10,-5.10
2019,02,05,02,11,-5.10
2019,02,05,02,12,-5.10
2019,02,05,02,13,-5.20
2019,02,05,02,14,-5.20
2019,02,05,02,15,-5.20
2019,02,05,02,16,-5.20
2019,02,05,02,17,-5.20
2019,02,05,02,18,-5.20
2019,02,05,02,19,-5.20
2019,02,05,02,20,-5.20
2019,02,05,02,21,-5.20
2019,02,05,02,22,-5.20
2019,02,05,02,23,-5.20
2019,02,05,02,24,-5.20
2019,02,05,02,25,-5.20
2019,02,05,02,26,-5.20
2019,02,05,02,27,-5.20
2019,02,05,02,28,-5.20
2019,02,05,02,29,-5.20
2019,02,05,02,30,-5.20
2019,02,05,02,31,-5.20
2019,02,05,02,32,-5.20
2019,02,05,02,33,-5.20
2019,02,05,02,34,-5.20
2019,02,05,02,35,-5.20
2019,02,05,02,36,-5.20
2019,02,05,02,37,-5.20
2019,02,05,02,38,-5.20
2019,02,05,02,39,-5.20
2019,02,05,02,40,-5.20
2019,02,05,02,41,-5.20
2019,02,05,02,42,-5.20
2019,02,05,02,43,-5.20
2019,02,05,02,44,-5.20
2019,02,05,02,45,-5.20
2019,02,05,02,46,-5.20
2019,02,05,02,47,-5.20
2019,02,05,02,48,-5.20
2019,02,05,02,49,-5.20
2019,02,05,02,50,-5.20
2019,02,05,02,51,-5.20
2019,02,05,02,52,-5.20
2019,02,05,02,53,-5.20
2019,02,05,02,54,-5.20
2019,02,05,02,55,-5.20
2019,02,05,02,56,-5.20
2019,02,05,02,57,-5.20
2019,02,05,02,58,-5.30
2019,02,05,02,59,-5.30
2019,02,05,03,00,-5.30
2019,02,05,03,01,-5.30
2019,02,05,03,02,-5.30
2019,02,05,03,03,-5.30
2019,02,05,03,04,-5.30
2019,02,05,03,05,-5.30
2019,02,05,03,06,-5.30
2019,02,05,03,07,-5.30
2019,02,05,03,08,-5.30
2019,02,05,03,09,-5.30
2019,02,05,03,10,-5.30
2019,02,05,03,11,-5.30
2019,02,05,03,12,-5.30
2019,02,05,03,13,-5.30
2019,02,05,03,14,-5.30
2019,02,05,03,15,-5.30
2019,02,05,03,16,-5.30
2019,02,05,03,17,-5.30
2019,02,05,03,18,-5.30
2019,02,05,03,19,-5.30
2019,02,05,03,20,-5.30
2019,02,05,03,21,-5.30
2019,02,05,03,22,-5.30
2019,02,05,03,23,-5.30
2019,02,05,03,24,-5.30
2019,02,05,03,25,-5.30
2019,02,05,03,26,-5.30
2019,02,05,03,27,-5.30
2019,02,05,03,28,-5.30
2019,02,05,03,29,-5.30
2019,02,05,03,30,-5.30
2019,02,05,03,31,-5.30
2019,02,05,03,32,-5.40
2019,02,05,03,33,-5.40
2019,02,05,03,34,-5.40
2019,02,05,03,35,-5.40
2019,02,05,03,36,-5.40
2019,02,05,03,37,-5.40
2019,02,05,03,38,-5.40
2019,02,05,03,39,-5.40
2019,02,05,03,40,-5.40
2019,02,05,03,41,-5.40
2019,02,05,03,42,-5.40
2019,02,05,03,43,-5.40
2019,02,05,03,44,-5.40
2019,02,05,03,45,-5.40
2019,02,05,03,46,-5.40
2019,02,05,03,47,-5.40
2019,02,05,03,48,-5.40
2019,02,05,03,49,-5.50
2019,02,05,03,50,-5.50
2019,02,05,03,51,-5.50
2019,02,05,03,52,-5.50
2019,02,05,03,53,-5.50
2019,02,05,03,54,-5.50
2019,02,05,03,55,-5.60
2019,02,05,03,56,-5.60
2019,02,05,03,57,-5.60
2019,02,05,03,58,-5.60
2019,02,05,03,59,-5.60
2019,02,05,04,00,-5.60
2019,02,05,04,01,-5.60
2019,02,05,04,02,-5.60
2019,02,05,04,03,-5.60
2019,02,05,04,04,-5.60
2019,02,05,04,05,-5.60
2019,02,05,04,06,-5.60
2019,02,05,04,07,-5.60
2019,02,05,04,08,-5.70
2019,02,05,04,09,-5.70
2019,02,05,04,10,-5.70
2019,02,05,04,11,-5.70
2019,02,05,04,12,-5.70
2019,02,05,04,13,-5.70
2019,02,05,04,14,-5.70
2019,02,05,04,15,-5.70
2019,02,05,04,16,-5.70
2019,02,05,04,17,-5.70
2019,02,05,04,18,-5.70
2019,02,05,04,19,-5.70
2019,02,05,04,20,-5.70
2019,02,05,04,21,-5.70
2019,02,05,04,22,-5.70
2019,02,05,04,23,-5.70
2019,02,05,04,24,-5.70
2019,02,05,04,25,-5.70
2019,02,05,04,26,-5.70
2019,02,05,04,27,-5.80
2019,02,05,04,28,-5.70
2019,02,05,04,29,-5.80
2019,02,05,04,30,-5.80
2019,02,05,04,31,-5.80
2019,02,05,04,32,-5.80
2019,02,05,04,33,-5.80
2019,02,05,04,34,-5.80
2019,02,05,04,35,-5.80
2019,02,05,04,36,-5.90
2019,02,05,04,37,-5.90
2019,02,05,04,38,-5.90
2019,02,05,04,39,-5.90
2019,02,05,04,40,-5.90
2019,02,05,04,41,-5.90
2019,02,05,04,42,-5.90
2019,02,05,04,43,-5.90
2019,02,05,04,44,-6.00
2019,02,05,04,45,-6.00
2019,02,05,04,46,-6.00
2019,02,05,04,47,-6.00
2019,02,05,04,48,-6.00
2019,02,05,04,49,-6.00
2019,02,05,04,50,-6.10
2019,02,05,04,51,-6.10
2019,02,05,04,52,-6.10
2019,02,05,04,53,-6.10
2019,02,05,04,54,-6.10
2019,02,05,04,55,-6.10
2019,02,05,04,56,-6.10
2019,02,05,04,57,-6.10
2019,02,05,04,58,-6.10
2019,02,05,04,59,-6.10
2019,02,05,05,00,-6.10
2019,02,05,05,01,-6.10
2019,02,05,05,02,-6.10
2019,02,05,05,03,-6.00
2019,02,05,05,04,-6.00
2019,02,05,05,05,-6.00
2019,02,05,05,06,-6.00
2019,02,05,05,07,-6.00
2019,02,05,05,08,-6.00
2019,02,05,05,09,-6.00
2019,02,05,05,10,-6.00
2019,02,05,05,11,-6.00
2019,02,05,05,12,-6.00
2019,02,05,05,13,-6.00
2019,02,05,05,14,-6.00
2019,02,05,05,15,-6.00
2019,02,05,05,16,-6.00
2019,02,05,05,17,-6.00
2019,02,05,05,18,-6.00
2019,02,05,05,19,-6.00
2019,02,05,05,20,-6.00
2019,02,05,05,21,-6.00
2019,02,05,05,22,-6.10
2019,02,05,05,23,-6.10
2019,02,05,05,24,-6.10
2019,02,05,05,25,-6.10
2019,02,05,05,26,-6.10
2019,02,05,05,27,-6.10
2019,02,05,05,28,-6.10
2019,02,05,05,29,-6.10
2019,02,05,05,30,-6.10
2019,02,05,05,31,-6.10
2019,02,05,05,32,-6.10
2019,02,05,05,33,-6.10
2019,02,05,05,34,-6.10
2019,02,05,05,35,-6.10
2019,02,05,05,36,-6.20
2019,02,05,05,37,-6.20
2019,02,05,05,38,-6.20
2019,02,05,05,39,-6.20
2019,02,05,05,40,-6.20
2019,02,05,05,41,-6.20
2019,02,05,05,42,-6.20
2019,02,05,05,43,-6.20
2019,02,05,05,44,-6.20
2019,02,05,05,45,-6.20
2019,02,05,05,46,-6.20
2019,02,05,05,47,-6.20
2019,02,05,05,48,-6.20
2019,02,05,05,49,-6.20
2019,02,05,05,50,-6.20
2019,02,05,05,51,-6.20
2019,02,05,05,52,-6.20
2019,02,05,05,53,-6.20
2019,02,05,05,54,-6.20
2019,02,05,05,55,-6.20
2019,02,05,05,56,-6.20
2019,02,05,05,57,-6.20
2019,02,05,05,58,-6.20
2019,02,05,05,59,-6.20
2019,02,05,06,00,-6.20
2019,02,05,06,01,-6.20
2019,02,05,06,02,-6.20
2019,02,05,06,03,-6.20
2019,02,05,06,04,-6.20
2019,02,05,06,05,-6.20
2019,02,05,06,06,-6.20
2019,02,05,06,07,-6.20
2019,02,05,06,08,-6.20
2019,02,05,06,09,-6.30
2019,02,05,06,10,-6.30
2019,02,05,06,11,-6.30
2019,02,05,06,12,-6.30
2019,02,05,06,13,-6.30
2019,02,05,06,14,-6.30
2019,02,05,06,15,-6.30
2019,02,05,06,16,-6.30
2019,02,05,06,17,-6.30
2019,02,05,06,18,-6.30
2019,02,05,06,19,-6.30
2019,02,05,06,20,-6.30
2019,02,05,06,21,-6.30
2019,02,05,06,22,-6.30
2019,02,05,06,23,-6.30
2019,02,05,06,24,-6.40
2019,02,05,06,25,-6.40
2019,02,05,06,26,-6.40
2019,02,05,06,27,-6.40
2019,02,05,06,28,-6.40
2019,02,05,06,29,-6.40
2019,02,05,06,30,-6.40
2019,02,05,06,31,-6.40
2019,02,05,06,32,-6.40
2019,02,05,06,33,-6.40
2019,02,05,06,34,-6.40
2019,02,05,06,35,-6.40
2019,02,05,06,36,-6.40
2019,02,05,06,37,-6.40
2019,02,05,06,38,-6.40
2019,02,05,06,39,-6.40
2019,02,05,06,40,-6.40
2019,02,05,06,41,-6.40
2019,02,05,06,42,-6.40
2019,02,05,06,43,-6.40
2019,02,05,06,44,-6.30
2019,02,05,06,45,-6.30
2019,02,05,06,46,-6.30
2019,02,05,06,47,-6.30
2019,02,05,06,48,-6.40
2019,02,05,06,49,-6.40
2019,02,05,06,50,-6.40
2019,02,05,06,51,-6.40
2019,02,05,06,52,-6.40
2019,02,05,06,53,-6.40
2019,02,05,06,54,-6.40
2019,02,05,06,55,-6.40
2019,02,05,06,56,-6.40
2019,02,05,06,57,-6.40
2019,02,05,06,58,-6.50
2019,02,05,06,59,-6.50
2019,02,05,07,00,-6.50
2019,02,05,07,01,-6.50
2019,02,05,07,02,-6.60
2019,02,05,07,03,-6.60
2019,02,05,07,04,-6.60
2019,02,05,07,05,-6.60
2019,02,05,07,06,-6.60
2019,02,05,07,07,-6.60
2019,02,05,07,08,-6.60
2019,02,05,07,09,-6.60
2019,02,05,07,10,-6.70
2019,02,05,07,11,-6.70
2019,02,05,07,12,-6.70
2019,02,05,07,13,-6.70
2019,02,05,07,14,-6.70
2019,02,05,07,15,-6.70
2019,02,05,07,16,-6.70
2019,02,05,07,17,-6.70
2019,02,05,07,18,-6.70
2019,02,05,07,19,-6.80
2019,02,05,07,20,-6.70
2019,02,05,07,21,-6.70
2019,02,05,07,22,-6.70
2019,02,05,07,23,-6.70
2019,02,05,07,24,-6.70
2019,02,05,07,25,-6.70
2019,02,05,07,26,-6.70
2019,02,05,07,27,-6.70
2019,02,05,07,28,-6.70
2019,02,05,07,29,-6.70
2019,02,05,07,30,-6.70
2019,02,05,07,31,-6.70
2019,02,05,07,32,-6.70
2019,02,05,07,33,-6.70
2019,02,05,07,34,-6.70
2019,02,05,07,35,-6.70
2019,02,05,07,36,-6.60
2019,02,05,07,37,-6.60
2019,02,05,07,38,-6.60
2019,02,05,07,39,-6.60
2019,02,05,07,40,-6.60
2019,02,05,07,41,-6.60
2019,02,05,07,42,-6.60
2019,02,05,07,43,-6.70
2019,02,05,07,44,-6.70
2019,02,05,07,45,-6.60
2019,02,05,07,46,-6.60
2019,02,05,07,47,-6.60
2019,02,05,07,48,-6.70
2019,02,05,07,49,-6.70
2019,02,05,07,50,-6.70
2019,02,05,07,51,-6.70
2019,02,05,07,52,-6.70
2019,02,05,07,53,-6.70
2019,02,05,07,54,-6.70
2019,02,05,07,55,-6.70
2019,02,05,07,56,-6.70
2019,02,05,07,57,-6.70
2019,02,05,07,58,-6.70
2019,02,05,07,59,-6.70
2019,02,05,08,00,-6.70
2019,02,05,08,01,-6.70
2019,02,05,08,02,-6.70
2019,02,05,08,03,-6.70
2019,02,05,08,04,-6.70
2019,02,05,08,05,-6.70
2019,02,05,08,06,-6.60
2019,02,05,08,07,-6.60
2019,02,05,08,08,-6.60
2019,02,05,08,09,-6.60
2019,02,05,08,10,-6.60
2019,02,05,08,11,-6.60
2019,02,05,08,12,-6.60
2019,02,05,08,13,-6.60
2019,02,05,08,14,-6.60
2019,02,05,08,15,-6.60
2019,02,05,08,16,-6.50
2019,02,05,08,17,-6.50
2019,02,05,08,18,-6.60
2019,02,05,08,19,-6.50
2019,02,05,08,20,-6.50
2019,02,05,08,21,-6.50
2019,02,05,08,22,-6.50
2019,02,05,08,23,-6.40
2019,02,05,08,24,-6.50
2019,02,05,08,25,-6.40
2019,02,05,08,26,-6.40
2019,02,05,08,27,-6.40
2019,02,05,08,28,-6.40
2019,02,05,08,29,-6.40
2019,02,05,08,30,-6.40
2019,02,05,08,31,-6.40
2019,02,05,08,32,-6.40
2019,02,05,08,33,-6.40
2019,02,05,08,34,-6.40
2019,02,05,08,35,-6.40
2019,02,05,08,36,-6.40
2019,02,05,08,37,-6.40
2019,02,05,08,38,-6.40
2019,02,05,08,39,-6.40
2019,02,05,08,40,-6.40
2019,02,05,08,41,-6.40
2019,02,05,08,42,-6.40
2019,02,05,08,43,-6.40
2019,02,05,08,44,-6.40
2019,02,05,08,45,-6.40
2019,02,05,08,46,-6.40
2019,02,05,08,47,-6.40
2019,02,05,08,48,-6.40
2019,02,05,08,49,-6.40
2019,02,05,08,50,-6.30
2019,02,05,08,51,-6.30
2019,02,05,08,52,-6.30
2019,02,05,08,53,-6.30
2019,02,05,08,54,-6.30
2019,02,05,08,55,-6.30
2019,02,05,08,56,-6.30
2019,02,05,08,57,-6.30
2019,02,05,08,58,-6.30
2019,02,05,08,59,-6.30
2019,02,05,09,00,-6.30
2019,02,05,09,01,-6.30
2019,02,05,09,02,-6.30
2019,02,05,09,03,-6.30
2019,02,05,09,04,-6.30
2019,02,05,09,05,-6.30
2019,02,05,09,06,-6.20
2019,02,05,09,07,-6.20
2019,02,05,09,08,-6.20
2019,02,05,09,09,-6.20
2019,02,05,09,10,-6.20
2019,02,05,09,11,-6.20
2019,02,05,09,12,-6.20
2019,02,05,09,13,-6.20
2019,02,05,09,14,-6.20
2019,02,05,09,15,-6.20
2019,02,05,09,16,-6.20
2019,02,05,09,17,-6.10
2019,02,05,09,18,-6.10
2019,02,05,09,19,-6.10
2019,02,05,09,20,-6.10
2019,02,05,09,21,-6.10
2019,02,05,09,22,-6.10
2019,02,05,09,23,-6.10
2019,02,05,09,25,-6.00
2019,02,05,09,26,-6.00
2019,02,05,09,27,-5.90
2019,02,05,09,28,-5.90
2019,02,05,09,29,-5.90
2019,02,05,09,30,-5.80
2019,02,05,09,31,-5.80
2019,02,05,09,32,-5.80
2019,02,05,09,33,-5.80
2019,02,05,09,34,-5.80
2019,02,05,09,35,-5.80
2019,02,05,09,36,-5.80
2019,02,05,09,37,-5.80
2019,02,05,09,38,-5.80
2019,02,05,09,39,-5.70
2019,02,05,09,41,-5.70
2019,02,05,09,42,-5.70
2019,02,05,09,43,-5.70
2019,02,05,09,44,-5.60
2019,02,05,09,45,-5.60
2019,02,05,09,46,-5.60
2019,02,05,09,47,-5.60
2019,02,05,09,48,-5.60
2019,02,05,09,49,-5.60
2019,02,05,09,50,-5.50
2019,02,05,09,51,-5.40
2019,02,05,09,52,-5.40
2019,02,05,09,53,-5.30
2019,02,05,09,54,-5.30
2019,02,05,09,55,-5.30
2019,02,05,09,56,-5.20
2019,02,05,09,57,-5.20
2019,02,05,09,58,-5.10
2019,02,05,09,59,-5.10
2019,02,05,10,00,-5.10
2019,02,05,10,01,-5.00
2019,02,05,10,02,-5.00
2019,02,05,10,03,-4.90
2019,02,05,10,04,-4.90
2019,02,05,10,05,-4.90
2019,02,05,10,06,-4.90
2019,02,05,10,07,-4.90
2019,02,05,10,08,-4.80
2019,02,05,10,09,-4.80
2019,02,05,10,10,-4.80
2019,02,05,10,11,-4.80
2019,02,05,10,12,-4.80
2019,02,05,10,13,-4.80
2019,02,05,10,14,-4.70
2019,02,05,10,15,-4.70
2019,02,05,10,16,-4.60
2019,02,05,10,17,-4.60
2019,02,05,10,18,-4.40
2019,02,05,10,19,-4.40
2019,02,05,10,20,-4.30
2019,02,05,10,21,-4.30
2019,02,05,10,22,-4.20
2019,02,05,10,23,-4.10
2019,02,05,10,24,-4.10
2019,02,05,10,25,-4.00
2019,02,05,10,26,-3.90
2019,02,05,10,27,-3.80
2019,02,05,10,28,-3.70
2019,02,05,10,29,-3.70
2019,02,05,10,30,-3.60
2019,02,05,10,31,-3.60
2019,02,05,10,32,-3.50
2019,02,05,10,33,-3.40
2019,02,05,10,34,-3.30
2019,02,05,10,35,-3.30
2019,02,05,10,36,-3.20
2019,02,05,10,37,-3.10
2019,02,05,10,38,-3.00
2019,02,05,10,39,-2.90
2019,02,05,10,40,-2.80
2019,02,05,10,41,-2.70
2019,02,05,10,42,-2.60
2019,02,05,10,43,-2.50
2019,02,05,10,44,-2.40
2019,02,05,10,45,-2.30
2019,02,05,10,46,-2.20
2019,02,05,10,47,-2.20
2019,02,05,10,48,-2.10
2019,02,05,10,49,-2.00
2019,02,05,10,50,-1.90
2019,02,05,10,52,-1.80
2019,02,05,10,53,-1.80
2019,02,05,10,55,-1.70
2019,02,05,10,56,-1.70
2019,02,05,10,57,-1.60
2019,02,05,10,58,-1.60
2019,02,05,10,59,-1.60
2019,02,05,11,00,-1.60
2019,02,05,11,01,-1.60
2019,02,05,11,02,-1.50
2019,02,05,11,03,-1.40
2019,02,05,11,04,-1.40
2019,02,05,11,05,-1.30
2019,02,05,11,06,-1.40
2019,02,05,11,07,-1.40
2019,02,05,11,08,-1.30
2019,02,05,11,09,-1.30
2019,02,05,11,10,-1.30
2019,02,05,11,11,-1.30
2019,02,05,11,12,-1.30
2019,02,05,11,13,-1.30
2019,02,05,11,14,-1.30
2019,02,05,11,15,-1.30
2019,02,05,11,16,-1.20
2019,02,05,11,17,-1.20
2019,02,05,11,18,-1.20
2019,02,05,11,19,-1.10
2019,02,05,11,20,-1.10
2019,02,05,11,21,-1.00
2019,02,05,11,22,-0.90
2019,02,05,11,23,-0.90
2019,02,05,11,24,-0.80
2019,02,05,11,25,-0.80
2019,02,05,11,26,-0.70
2019,02,05,11,27,-0.70
2019,02,05,11,28,-0.60
2019,02,05,11,29,-0.60
2019,02,05,11,30,-0.40
2019,02,05,11,31,-0.40
2019,02,05,11,32,-0.30
2019,02,05,11,33,-0.30
2019,02,05,11,34,-0.20
2019,02,05,11,35,-0.20
2019,02,05,11,36,-0.20
2019,02,05,11,37,-0.10
2019,02,05,11,38,-0.10
2019,02,05,11,39,0.00
2019,02,05,11,40,0.00
2019,02,05,11,41,0.10
2019,02,05,11,42,0.20
2019,02,05,11,43,0.20
2019,02,05,11,44,0.30
2019,02,05,11,45,0.30
2019,02,05,11,46,0.40
2019,02,05,11,47,0.40
2019,02,05,11,48,0.50
2019,02,05,11,49,0.50
2019,02,05,11,50,0.50
2019,02,05,11,51,0.60
2019,02,05,11,52,0.60
2019,02,05,11,53,0.60
2019,02,05,11,54,0.60
2019,02,05,11,55,0.60
2019,02,05,11,56,0.70
2019,02,05,11,57,0.70
2019,02,05,11,58,0.70
2019,02,05,11,59,0.70
2019,02,05,12,00,0.70
2019,02,05,12,01,0.70
2019,02,05,12,02,0.70
2019,02,05,12,03,0.70
2019,02,05,12,05,0.80
2019,02,05,12,06,0.80
2019,02,05,12,07,0.80
2019,02,05,12,08,0.80
2019,02,05,12,09,0.80
2019,02,05,12,10,0.80
2019,02,05,12,11,0.80
2019,02,05,12,12,0.90
2019,02,05,12,13,0.90
2019,02,05,12,14,0.90
2019,02,05,12,15,0.90
2019,02,05,12,16,1.00
2019,02,05,12,17,1.10
2019,02,05,12,18,1.10
2019,02,05,12,19,1.10
2019,02,05,12,20,1.10
2019,02,05,12,21,1.10
2019,02,05,12,22,1.10
2019,02,05,12,23,1.10
2019,02,05,12,24,1.10
2019,02,05,12,25,1.10
2019,02,05,12,26,1.20
2019,02,05,12,27,1.20
2019,02,05,12,28,1.30
2019,02,05,12,29,1.30
2019,02,05,12,30,1.40
2019,02,05,12,31,1.50
2019,02,05,12,32,1.60
2019,02,05,12,33,1.60
2019,02,05,12,34,1.70
2019,02,05,12,35,1.70
2019,02,05,12,36,1.80
2019,02,05,12,37,1.80
2019,02,05,12,38,1.90
2019,02,05,12,39,1.90
2019,02,05,12,40,2.00
2019,02,05,12,41,2.10
2019,02,05,12,42,2.10
2019,02,05,12,43,2.20
2019,02,05,12,44,2.20
2019,02,05,12,45,2.30
2019,02,05,12,46,2.30
2019,02,05,12,47,2.40
2019,02,05,12,48,2.40
2019,02,05,12,49,2.50
2019,02,05,12,51,2.60
2019,02,05,12,52,2.60
2019,02,05,12,53,2.60
2019,02,05,12,54,2.60
2019,02,05,12,55,2.70
2019,02,05,12,56,2.70
2019,02,05,12,57,2.70
2019,02,05,12,58,2.70
2019,02,05,13,00,2.80
2019,02,05,13,01,2.80
2019,02,05,13,02,2.80
2019,02,05,13,03,2.80
2019,02,05,13,04,2.80
2019,02,05,13,05,2.80
2019,02,05,13,06,2.90
2019,02,05,13,07,2.90
2019,02,05,13,08,2.90
2019,02,05,13,09,3.00
2019,02,05,13,10,3.00
2019,02,05,13,11,3.10
2019,02,05,13,12,3.10
2019,02,05,13,13,3.10
2019,02,05,13,14,3.10
2019,02,05,13,15,3.20
2019,02,05,13,16,3.20
2019,02,05,13,17,3.20
2019,02,05,13,18,3.20
2019,02,05,13,19,3.20
2019,02,05,13,20,3.30
2019,02,05,13,21,3.30
2019,02,05,13,22,3.30
2019,02,05,13,23,3.30
2019,02,05,13,24,3.40
2019,02,05,13,25,3.40
2019,02,05,13,26,3.40
2019,02,05,13,27,3.40
2019,02,05,13,28,3.40
2019,02,05,13,29,3.40
2019,02,05,13,31,3.40
2019,02,05,13,32,3.40
2019,02,05,13,33,3.40
2019,02,05,13,34,3.50
2019,02,05,13,35,3.60
2019,02,05,13,36,3.60
2019,02,05,13,37,3.70
2019,02,05,13,38,3.70
2019,02,05,13,39,3.70
2019,02,05,13,40,3.70
2019,02,05,13,41,3.80
2019,02,05,13,42,3.80
2019,02,05,13,43,3.80
2019,02,05,13,44,3.70
2019,02,05,13,45,3.70
2019,02,05,13,47,3.60
2019,02,05,13,48,3.60
2019,02,05,13,49,3.60
2019,02,05,13,50,3.70
2019,02,05,13,51,3.80
2019,02,05,13,52,3.80
2019,02,05,13,53,3.90
2019,02,05,13,54,3.90
2019,02,05,13,55,3.90
2019,02,05,13,56,3.90
2019,02,05,13,57,3.90
2019,02,05,13,58,3.90
2019,02,05,13,59,3.90
2019,02,05,14,00,3.90
2019,02,05,14,01,3.90
2019,02,05,14,02,3.90
2019,02,05,14,03,3.90
2019,02,05,14,04,3.90
2019,02,05,14,05,3.90
2019,02,05,14,06,4.00
2019,02,05,14,07,4.10
2019,02,05,14,09,4.10
2019,02,05,14,10,4.10
2019,02,05,14,11,4.20
2019,02,05,14,12,4.20
2019,02,05,14,13,4.30
2019,02,05,14,14,4.30
2019,02,05,14,15,4.30
2019,02,05,14,16,4.30
2019,02,05,14,17,4.40
2019,02,05,14,18,4.40
2019,02,05,14,19,4.40
2019,02,05,14,20,4.40
2019,02,05,14,21,4.40
2019,02,05,14,22,4.40
2019,02,05,14,24,4.40
2019,02,05,14,25,4.40
2019,02,05,14,26,4.40
2019,02,05,14,27,4.50
2019,02,05,14,28,4.50
2019,02,05,14,29,4.50
2019,02,05,14,30,4.40
2019,02,05,14,31,4.50
2019,02,05,14,32,4.50
2019,02,05,14,33,4.50
2019,02,05,14,34,4.60
2019,02,05,14,35,4.60
2019,02,05,14,36,4.50
2019,02,05,14,37,4.60
2019,02,05,14,39,4.60
2019,02,05,14,40,4.60
2019,02,05,14,41,4.70
2019,02,05,14,42,4.70
2019,02,05,14,43,4.70
2019,02,05,14,44,4.70
2019,02,05,14,45,4.70
2019,02,05,14,46,4.80
2019,02,05,14,47,4.80
2019,02,05,14,48,4.70
2019,02,05,14,49,4.70
2019,02,05,14,50,4.60
2019,02,05,14,51,4.60
2019,02,05,14,52,4.50
2019,02,05,14,53,4.50
2019,02,05,14,54,4.50
2019,02,05,14,55,4.50
2019,02,05,14,56,4.50
2019,02,05,14,57,4.50
2019,02,05,14,58,4.60
2019,02,05,14,59,4.60
2019,02,05,15,00,4.60
2019,02,05,15,01,4.70
2019,02,05,15,02,4.70
2019,02,05,15,03,4.70
2019,02,05,15,04,4.80
2019,02,05,15,05,4.80
2019,02,05,15,06,4.80
2019,02,05,15,07,4.80
2019,02,05,15,08,4.90
2019,02,05,15,09,4.90
2019,02,05,15,10,5.00
2019,02,05,15,11,5.10
2019,02,05,15,12,5.10
2019,02,05,15,13,5.20
2019,02,05,15,14,5.20
2019,02,05,15,15,5.20
2019,02,05,15,16,5.20
2019,02,05,15,17,5.20
2019,02,05,15,20,5.20
2019,02,05,15,21,5.10
2019,02,05,15,23,5.10
2019,02,05,15,24,5.00
2019,02,05,15,25,5.00
2019,02,05,15,26,4.90
2019,02,05,15,27,4.90
2019,02,05,15,28,4.90
2019,02,05,15,29,4.90
2019,02,05,15,30,4.90
2019,02,05,15,31,4.90
2019,02,05,15,32,4.80
2019,02,05,15,33,4.80
2019,02,05,15,34,4.80
2019,02,05,15,35,4.80
2019,02,05,15,36,4.80
2019,02,05,15,37,4.80
2019,02,05,15,38,4.80
2019,02,05,15,39,4.80
2019,02,05,15,40,4.80
2019,02,05,15,41,4.80
2019,02,05,15,42,4.70
2019,02,05,15,43,4.70
2019,02,05,15,44,4.70
2019,02,05,15,45,4.60
2019,02,05,15,47,4.60
2019,02,05,15,48,4.60
2019,02,05,15,49,4.70
2019,02,05,15,50,4.70
2019,02,05,15,51,4.70
2019,02,05,15,52,4.70
2019,02,05,15,53,4.70
2019,02,05,15,54,4.70
2019,02,05,15,55,4.70
2019,02,05,15,56,4.70
2019,02,05,15,57,4.60
2019,02,05,15,58,4.60
2019,02,05,15,59,4.60
2019,02,05,16,00,4.60
2019,02,05,16,01,4.60
2019,02,05,16,02,4.60
2019,02,05,16,03,4.50
2019,02,05,16,04,4.50
2019,02,05,16,05,4.50
2019,02,05,16,06,4.40
2019,02,05,16,07,4.40
2019,02,05,16,08,4.40
2019,02,05,16,09,4.40
2019,02,05,16,10,4.30
2019,02,05,16,11,4.30
2019,02,05,16,12,4.30
2019,02,05,16,13,4.20
2019,02,05,16,14,4.20
2019,02,05,16,15,4.10
2019,02,05,16,16,4.10
2019,02,05,16,18,4.10
2019,02,05,16,19,4.10
2019,02,05,16,20,4.10
2019,02,05,16,21,4.00
2019,02,05,16,22,4.00
2019,02,05,16,23,4.00
2019,02,05,16,24,4.00
2019,02,05,16,25,3.90
2019,02,05,16,26,3.90
2019,02,05,16,27,3.90
2019,02,05,16,28,3.80
2019,02,05,16,29,3.80
2019,02,05,16,30,3.70
2019,02,05,16,31,3.60
2019,02,05,16,32,3.50
2019,02,05,16,33,3.40
2019,02,05,16,34,3.30
2019,02,05,16,35,3.30
2019,02,05,16,36,3.20
2019,02,05,16,37,3.10
2019,02,05,16,38,3.00
2019,02,05,16,39,2.90
2019,02,05,16,40,2.90
2019,02,05,16,41,2.80
2019,02,05,16,42,2.80
2019,02,05,16,43,2.70
2019,02,05,16,44,2.70
2019,02,05,16,45,2.60
2019,02,05,16,46,2.60
2019,02,05,16,47,2.60
2019,02,05,16,48,2.50
2019,02,05,16,49,2.50
2019,02,05,16,50,2.40
2019,02,05,16,51,2.40
2019,02,05,16,52,2.40
2019,02,05,16,53,2.30
2019,02,05,16,54,2.30
2019,02,05,16,56,2.30
2019,02,05,16,58,2.20
2019,02,05,16,59,2.20
2019,02,05,17,00,2.10
2019,02,05,17,01,2.10
2019,02,05,17,02,2.10
2019,02,05,17,03,2.00
2019,02,05,17,04,1.90
2019,02,05,17,06,1.80
2019,02,05,17,07,1.80
2019,02,05,17,08,1.80
2019,02,05,17,10,1.60
2019,02,05,17,11,1.50
2019,02,05,17,12,1.40
2019,02,05,17,13,1.30
2019,02,05,17,14,1.30
2019,02,05,17,15,1.20
2019,02,05,17,16,1.20
2019,02,05,17,17,1.10
2019,02,05,17,18,1.10
2019,02,05,17,19,1.10
2019,02,05,17,20,1.10
2019,02,05,17,21,1.10
2019,02,05,17,22,1.10
2019,02,05,17,23,1.10
2019,02,05,17,24,1.10
2019,02,05,17,25,1.10
2019,02,05,17,26,1.00
2019,02,05,17,27,1.00
2019,02,05,17,28,1.00
2019,02,05,17,29,1.00
2019,02,05,17,30,1.00
2019,02,05,17,31,1.00
2019,02,05,17,32,0.90
2019,02,05,17,33,0.90
2019,02,05,17,34,0.90
2019,02,05,17,35,0.90
2019,02,05,17,36,0.90
2019,02,05,17,37,0.80
2019,02,05,17,38,0.80
2019,02,05,17,39,0.80
2019,02,05,17,40,0.80
2019,02,05,17,41,0.80
2019,02,05,17,42,0.80
2019,02,05,17,43,0.80
2019,02,05,17,44,0.80
2019,02,05,17,45,0.80
2019,02,05,17,47,0.80
2019,02,05,17,48,0.80
2019,02,05,17,49,0.80
2019,02,05,17,50,0.70
2019,02,05,17,51,0.70
2019,02,05,17,52,0.70
2019,02,05,17,53,0.60
2019,02,05,17,54,0.60
2019,02,05,17,56,0.60
2019,02,05,17,57,0.50
2019,02,05,17,58,0.40
2019,02,05,17,59,0.40
2019,02,05,18,00,0.40
2019,02,05,18,01,0.30
2019,02,05,18,02,0.30
2019,02,05,18,04,0.20